Showing default

BRO-21, 69007

Orbit data source: Space-Track

BRO-21, 69007 is a payload satellite owned by Unseen Labs (FR) in SSO that was launched on Sun, 03 May 2026 UTC via an FALCON 9 launch vehicle from the Air Force Western Test Range (AFWTR). Payload-class satellites include a variety of spacecraft equipped with specific instruments for various scientific and technological missions. These include communications satellites like Starlink; space stations such as the ISS; scientific satellites like the Hubble; Earth observation satellites from companies like Planet Labs, Umbra, and HawkEye 360; GPS; miniature CubeSats for education and research; and military/defense satellites.

Loading next visibility...
Identifier
69007, 2026-100AD
Orbit
SSO
Country
Flag of FRFR
Related business
Manufacturer
GOMSpace
Mission
Operational Commercial Sigint
Bus & Motor
CUBESAT 8U, Unknown motor
Mass
15 kg wet, ~15 kg dry
Launch date (UTC)
2026-05-03 (4 months ago)
Launch vehicle
FALCON 9
Launch site
Air Force Western Test Range (AFWTR)
Object type
Payload
Rocket body
Debris
Shape & HBR
Box, 1.1 m
Radar Cross Section
0.100 m², Medium (>0.1 m² and < 1m²)

Expand to show TLE details & history
Last TLE update: 23 hours ago

TLE from 23 hours ago
0 BRO-21
1 69007U 26100AD  26237.30517069  .00002308  00000-0  10468-3 0  9997
2 69007  97.3950 134.0514 0008245 160.5716 199.5836 15.21801712 17311
Epoch: 2026-08-25T07:19Z
TLE epoch observation values (Epoch: 2026-08-25T07:19:26.747Z)
Latitude
-0.00003°
Longitude
50.61553°
Altitude
508.844 km
Speed
7.607 km/s
True Right ascension
08h 56m 12s
True Declination
0° 00' 00"
Sunlit
Object was in daylight at epoch
Visualization orbit readout
Latitude
Unknown
Longitude
Unknown
Altitude
Unknown
Speed
Unknown
Apparent Right ascension
Unknown
Apparent Declination
Unknown
Sunlit
N/A
Visualization observer readout
Local Sidereal Time
21:33:16
Azimuth
Unknown
Elevation
Unknown
Doppler factor
Unknown
Orbital elements
Apogee altitude
503.038 km
Perigee altitude
491.7 km
Semi-major axis
6,875.506 km
Eccentricity
0.00082
Inclination
97.395°
RAAN
134.0514°
Arg. of periapsis
160.5716°
True anomaly
199.55196°
Mean anomaly
199.5836°
Eccentric anomaly
199.56778°
Mean motion
3.80703 °/min
Orbital period
94.56 mins
BSTAR
0.00010468
Loading maneuver chart data...
Computing Atmospheric mass density...
Loading historical data...
Loading historical data...
Loading historical data...
Loading historical data...
Loading historical data...
Loading historical data...
Loading historical data...

Documentation

Showing up to 5 results
|